View from above orbital plane
|
View from above satellite
|
Ground track
|
The orbit data is extracted from the following two-line orbital elements,
1 19770U 89005B 21018.81670475 .00000077 00000-0 33724-4 0 9993
2 19770 74.0450 151.7119 0006061 267.4003 200.7936 14.38860491674925
Epoch (UTC): | 18 January 2021 19:36:03 |
Eccentricity: | 0.0006061 |
inclination: | 74.0450° |
perigee height: | 758 km |
apogee height: | 766 km |
right ascension of ascending node: | 151.7119° |
argument of perigee: | 267.4003° |
revolutions per day: | 14.38860491 |
mean anomaly at epoch: | 200.7936° |
orbit number at epoch: | 67492 |
The dashed part of the orbit path shows where the satellite is in the earth's shadow,
|
|